Location: Melbourne
(37.8666°S, 145.1333°E)
Time: 06:28:42
(UTC+11:00)

Iridium 72 - Visible Passes

Search period start: 25 February 2017 00:00
Search period end: 07 March 2017 00:00
Orbit: 776 x 779 km, 86.4° (Epoch: 24 February)

Date Brightness Start Highest point End Pass type
(mag) Time Alt. Az. Time Alt. Az. Time Alt. Az.
25 Feb 6.1 20:28:04 10° NNE 20:32:52 38° E 20:37:43 10° SSE visible
25 Feb 7.9 22:09:36 10° NW 22:13:40 23° WSW 22:17:47 10° SSW visible
26 Feb 6.8 21:35:01 10° NNW 21:39:56 41° W 21:44:57 10° SSW visible
27 Feb 5.7 21:01:06 10° N 21:06:21 79° W 21:11:40 10° S visible
28 Feb 5.7 20:27:46 10° NNE 20:32:52 56° E 20:38:03 10° SSE visible
28 Feb 8.4 22:10:53 10° WNW 22:13:57 16° WSW 22:17:04 10° SW visible
01 Mar 7.6 21:35:39 10° NW 21:40:09 29° W 21:44:42 10° SSW visible
02 Mar 6.4 21:01:22 10° NNW 21:06:29 53° W 21:11:40 10° S visible
03 Mar 5.5 20:27:41 10° N 20:32:56 82° E 20:38:15 10° S visible
03 Mar 8.9 22:13:37 10° W 22:14:19 10° WSW 22:15:00 10° WSW visible
04 Mar 8.2 21:36:38 10° NW 21:40:25 20° WSW 21:44:14 10° SSW visible
05 Mar 9.4 06:29:43 10° ESE 06:30:35 10° ESE 06:31:26 10° E visible
05 Mar 7.2 21:01:51 10° NNW 21:06:39 36° W 21:11:32 10° SSW visible
06 Mar 6.0 20:27:49 10° N 20:33:02 69° W 20:38:20 10° S visible
